Date,TemperatureHighF,TemperatureAvgF,TemperatureLowF,DewpointHighF,DewpointAvgF,DewpointLowF,HumidityHigh,HumidityAvg,HumidityLow,PressureMaxIn,PressureMinIn,WindSpeedMaxMPH,WindSpeedAvgMPH,GustSpeedMaxMPH,PrecipitationSumIn
2013-1-1,39.7,37.0,35.1,35.5,33.1,28.6,91,86,65,29.00,28.82,31,7,31,0.00
2013-1-2,38.7,35.9,33.8,37.1,32.1,29.1,94,86,79,29.12,28.97,20,1,20,0.00
2013-1-3,37.0,34.2,29.7,33.1,29.6,26.8,89,83,76,29.32,29.09,10,0,10,0.00
2013-1-4,36.1,33.2,29.8,35.1,30.4,23.9,97,89,62,29.50,29.32,10,0,10,0.00
2013-1-5,36.5,34.9,32.5,34.7,32.7,28.6,96,91,87,29.35,28.88,13,0,13,0.00
2013-1-6,36.3,33.9,30.9,35.5,32.5,27.6,98,94,87,29.06,28.53,15,0,15,0.00
2013-1-7,36.1,35.0,33.6,35.4,31.3,23.9,98,86,67,29.15,28.53,17,1,17,0.00
2013-1-8,34.2,32.6,27.0,23.9,16.9,11.3,67,52,42,29.80,29.15,30,2,30,0.00
2013-1-9,36.5,30.4,23.7,33.4,23.2,14.3,89,75,59,29.85,29.62,14,0,14,0.00
2013-1-10,37.6,32.9,27.9,34.9,30.4,25.2,96,90,80,29.85,29.47,12,0,12,0.00
2013-1-11,38.1,36.4,33.8,37.2,32.4,27.1,98,86,68,29.85,29.44,15,1,15,0.00
2013-1-12,40.6,38.2,35.6,40.1,37.5,33.2,98,97,91,29.80,29.56,9,0,9,0.00
2013-1-13,43.0,41.0,38.7,40.7,39.1,38.0,98,93,83,29.62,29.35,0,0,0,0.00
2013-1-14,41.9,39.0,32.7,38.3,30.2,23.0,89,71,60,29.83,29.32,0,0,0,0.00
2013-1-15,35.4,31.2,28.4,29.6,25.5,21.5,91,79,63,30.00,29.83,0,0,0,0.00
2013-1-16,35.6,31.5,26.8,32.4,27.1,18.6,95,84,57,29.94,29.47,0,0,0,0.00
2013-1-17,27.1,23.2,18.1,18.3,9.1,4.2,72,55,42,29.71,29.47,0,0,0,0.00
2013-1-18,36.5,27.9,18.1,28.3,15.5,6.2,74,59,46,29.83,29.71,0,0,0,0.00
2013-1-19,39.9,37.9,35.8,39.4,35.4,24.7,98,91,63,29.77,29.38,13,0,13,0.00
2013-1-20,37.9,35.7,33.1,37.4,34.7,32.1,98,96,94,29.56,29.38,5,0,5,0.00
2013-1-21,40.6,38.4,34.5,40.1,37.8,33.5,98,98,94,29.56,29.18,15,1,15,0.00
2013-1-22,40.5,39.6,38.5,39.9,39.0,37.2,98,98,95,29.18,29.00,13,0,13,0.00
2013-1-23,40.6,39.7,38.5,40.1,38.6,36.8,98,96,89,29.00,28.82,14,3,14,0.00
2013-1-24,39.9,37.6,34.2,38.6,35.5,31.3,98,92,79,29.29,28.94,0,0,0,0.00
2013-1-25,34.5,29.9,23.2,31.7,20.8,7.2,95,71,46,29.41,29.26,0,0,0,0.00
2013-1-26,30.7,23.8,20.3,14.3,5.1,2.4,53,44,42,29.68,29.41,0,0,0,0.00
2013-1-27,24.4,20.6,15.1,6.4,1.7,-2.0,51,43,33,29.83,29.68,0,0,0,0.00
2013-1-28,33.1,23.5,14.5,32.6,16.8,-3.2,98,77,44,29.80,29.26,0,0,0,0.00
2013-1-29,37.6,35.2,33.1,37.1,34.7,32.6,98,98,98,29.41,29.23,15,0,15,0.00
2013-1-30,41.2,37.5,34.2,40.7,37.0,33.7,98,98,98,29.44,29.26,15,0,15,0.00
2013-1-31,37.6,35.0,31.6,37.1,34.5,31.0,98,98,98,29.62,29.44,5,0,5,0.00
2013-2-1,39.7,38.5,36.0,39.2,37.8,34.3,98,97,91,29.56,29.44,13,0,13,0.00
2013-2-2,39.2,38.3,37.0,38.7,37.7,35.7,98,98,95,29.44,28.82,12,0,12,0.00
2013-2-3,40.6,36.9,33.4,36.6,34.3,32.2,97,90,78,29.15,28.82,6,0,6,0.00
2013-2-4,40.1,37.4,35.8,37.5,34.1,32.0,95,88,78,29.35,29.15,8,0,8,0.00
2013-2-5,43.9,35.4,29.5,41.5,31.5,25.0,95,86,60,29.32,29.29,0,0,0,0.00
2013-2-6,32.9,28.2,24.8,29.2,13.7,6.1,90,55,41,29.41,29.29,0,0,0,0.00
2013-2-7,42.1,32.9,27.3,36.7,27.5,13.9,89,81,56,29.32,28.97,0,0,0,0.00
2013-2-8,37.6,32.7,26.8,36.0,30.4,24.2,97,91,85,29.44,29.18,15,0,17,0.00
2013-2-9,40.5,38.8,34.7,39.8,37.1,33.1,98,94,82,29.26,28.56,23,2,23,0.00
2013-2-10,39.2,34.3,27.7,37.2,22.6,9.9,97,63,44,29.41,28.64,13,0,13,0.00
2013-2-11,34.3,27.2,19.9,29.0,16.8,6.8,92,66,46,29.53,29.41,0,0,0,0.00
2013-2-12,39.9,34.4,28.8,37.3,30.7,24.4,95,86,72,29.53,29.32,0,0,0,0.00
2013-2-13,36.7,32.7,27.0,36.2,30.1,23.1,98,90,66,29.53,29.18,16,0,16,0.00
2013-2-14,39.7,36.0,33.3,37.4,32.1,27.1,98,86,62,29.29,28.85,14,0,14,0.00
2013-2-15,35.6,29.1,20.5,29.6,14.8,4.5,87,56,41,29.83,29.29,13,1,13,0.00
2013-2-16,34.9,27.7,19.4,33.1,19.9,6.6,95,73,55,29.85,29.26,8,0,8,0.00
2013-2-17,34.2,30.7,24.6,33.2,22.5,0.9,98,74,35,29.53,29.23,0,0,0,0.00
2013-2-18,35.6,28.4,23.0,13.6,8.4,0.1,55,43,22,29.62,29.50,13,1,13,0.00
2013-2-19,34.2,31.4,27.0,33.7,25.7,11.1,98,81,51,29.50,28.73,10,0,10,0.00
2013-2-20,39.6,33.0,27.0,35.8,29.6,21.8,98,88,71,29.06,28.67,14,0,14,0.00
2013-2-21,32.0,28.2,25.5,22.4,18.1,8.9,83,66,44,29.12,28.85,0,0,0,0.00
2013-2-22,37.6,31.8,27.0,28.8,13.6,8.1,86,47,39,29.29,29.06,19,2,19,0.00
2013-2-23,42.1,34.1,30.4,33.2,26.0,19.7,97,74,49,29.06,28.79,12,0,12,0.00
2013-2-24,40.1,34.8,30.2,33.8,30.3,26.2,93,84,70,29.35,28.97,11,0,11,0.00
2013-2-25,36.1,33.6,29.5,34.3,29.7,23.2,95,86,61,29.35,28.94,26,3,26,0.00
2013-2-26,40.6,36.9,34.0,36.7,34.4,31.3,96,91,73,28.97,28.85,24,2,24,0.00
2013-2-27,34.5,34.3,34.0,33.5,33.0,32.4,96,95,94,28.85,28.82,0,0,0,0.00
2013-2-28,33.3,30.2,28.0,20.2,16.6,14.4,70,57,49,29.23,29.15,11,0,11,0.00
2013-3-1,41.5,31.5,24.3,27.0,18.9,15.3,80,61,40,29.68,29.23,5,0,5,0.00
2013-3-2,36.7,32.8,25.5,29.7,22.5,18.4,86,67,48,29.71,29.62,14,1,15,0.00
2013-3-3,39.4,37.3,35.1,38.9,35.6,29.9,98,94,80,29.94,29.59,27,3,27,0.00
2013-3-4,40.6,39.2,36.7,39.2,37.2,32.4,98,93,83,30.12,29.94,17,1,17,0.00
2013-3-5,41.5,37.6,36.5,34.4,33.0,30.9,90,84,70,30.03,29.68,3,0,3,0.00
2013-3-6,42.8,38.4,35.2,41.2,35.4,30.8,96,89,68,29.68,29.41,17,1,17,0.00
2013-3-7,39.6,36.9,33.3,38.8,32.1,27.8,98,83,66,29.41,28.91,26,7,26,0.00
2013-3-8,39.4,37.1,34.5,33.6,29.4,23.2,85,74,56,29.44,29.15,23,3,23,0.00
2013-3-9,36.0,33.7,32.2,30.7,28.3,23.4,87,81,60,29.68,29.44,0,0,0,0.00
2013-3-10,43.5,34.5,27.9,24.9,17.5,11.7,68,50,39,30.00,29.85,28,2,28,0.00
2013-3-11,41.9,34.0,28.4,19.9,13.1,8.9,45,42,37,30.06,29.97,17,1,17,0.00
2013-3-12,39.2,34.0,30.7,16.9,11.9,8.0,54,40,30,29.97,29.71,14,1,14,0.00
2013-3-13,37.9,29.8,23.7,24.5,14.2,9.2,74,53,37,29.74,29.47,7,0,7,0.00
2013-3-14,35.8,29.2,21.0,30.7,20.6,13.1,88,71,43,29.47,29.38,15,0,15,0.00
2013-3-15,42.3,32.2,25.3,33.7,22.5,15.1,90,69,46,29.59,29.38,11,0,11,0.00
2013-3-16,40.1,30.9,23.7,25.8,17.8,13.0,77,59,41,29.91,29.59,8,0,8,0.00
2013-3-17,41.5,32.7,25.2,19.1,14.0,10.3,61,46,35,29.97,29.85,17,1,17,0.00
2013-3-18,37.0,32.2,25.9,16.5,11.7,6.1,52,42,34,29.85,29.68,17,1,17,0.00
2013-3-19,35.8,28.6,24.1,11.8,6.7,1.2,48,39,34,29.68,29.65,15,1,15,0.00
2013-3-20,39.7,29.6,23.0,13.5,4.9,-0.4,39,35,30,29.83,29.65,26,1,26,0.00
2013-3-21,41.9,32.7,22.8,17.6,10.9,3.6,52,40,33,29.97,29.83,15,0,15,0.00
2013-3-22,42.8,37.1,34.0,28.3,23.2,14.2,73,57,43,29.88,29.62,0,0,10,0.00
2013-3-23,44.2,35.5,30.0,32.1,25.9,19.8,94,69,42,29.65,29.50,0,0,0,0.00
2013-3-24,33.8,32.1,27.1,32.9,25.7,9.3,97,79,46,29.50,29.35,230,0,230,0.00
2013-3-25,30.4,23.0,15.1,13.6,3.6,-3.3,54,43,35,29.68,29.38,0,0,0,0.00
2013-3-26,35.1,22.0,10.4,9.9,1.8,-6.3,58,42,30,29.91,29.68,0,0,0,0.00
2013-3-27,37.4,33.5,21.9,33.0,26.0,14.3,89,74,60,29.91,29.77,13,0,13,0.00
2013-3-28,38.5,36.7,35.4,37.4,34.4,31.7,97,91,85,29.77,29.38,22,4,22,0.00
2013-3-29,49.3,36.7,32.9,39.7,34.0,26.4,97,91,45,29.56,29.41,0,0,0,0.00
2013-3-30,51.6,42.8,35.2,30.7,27.4,24.5,73,55,40,29.94,29.88,11,0,11,0.00
2013-3-31,42.1,35.1,28.9,32.1,27.4,23.8,88,74,50,29.97,29.91,0,0,0,0.00
2013-4-1,52.5,37.8,28.6,35.0,25.0,19.0,90,63,36,29.91,29.83,8,0,8,0.00
2013-4-2,52.0,37.4,27.3,30.2,23.4,18.6,79,59,37,29.88,29.85,5,0,5,0.00
2013-4-3,43.5,37.7,34.3,34.7,29.1,24.4,87,72,51,29.91,29.85,10,0,10,0.00
2013-4-4,41.2,37.5,35.1,32.0,27.2,20.7,84,67,49,29.85,29.50,13,0,13,0.00
2013-4-5,44.4,38.7,35.8,23.8,20.6,18.0,58,48,41,29.50,29.26,8,0,8,0.00
2013-4-6,49.6,39.2,29.8,24.1,17.8,9.6,60,42,33,29.32,29.21,0,0,0,0.00
2013-4-7,34.0,27.8,23.4,10.7,6.8,3.0,47,40,31,29.56,29.32,15,1,15,0.00
2013-4-8,35.2,28.3,20.3,12.4,4.1,-3.0,44,35,30,29.53,29.15,20,3,20,0.00
2013-4-9,30.4,21.5,16.7,5.2,-0.2,-5.3,45,38,31,29.44,29.03,17,2,17,0.00
2013-4-10,34.9,23.9,16.0,7.3,-0.3,-5.7,42,34,28,29.80,29.44,15,1,16,0.00
2013-4-11,32.0,22.5,15.4,12.6,5.0,-0.6,59,47,34,29.91,29.77,10,1,10,0.00
2013-4-12,38.7,27.4,18.7,10.5,4.8,-0.1,49,38,27,29.91,29.85,15,1,15,0.00
2013-4-13,43.2,36.0,26.8,11.8,5.3,-0.9,36,27,18,30.21,30.06,13,1,13,0.00
2013-4-14,52.9,35.4,24.6,21.7,11.4,3.0,50,37,24,30.27,30.18,14,0,14,0.00
2013-4-15,50.2,38.3,27.5,24.5,19.0,12.5,58,46,32,30.27,30.00,10,0,10,0.00
2013-4-16,46.6,38.8,28.6,20.1,12.2,7.4,45,34,26,29.94,29.88,11,1,11,0.00
2013-4-17,53.4,34.5,22.8,20.1,12.2,6.3,53,40,19,29.94,29.88,8,0,8,0.00
2013-4-18,52.3,35.3,25.3,26.2,15.1,10.6,54,44,31,29.91,29.88,0,0,0,0.00
2013-4-19,50.7,36.0,25.0,23.9,16.2,12.8,67,47,27,30.09,29.91,0,0,0,0.00
2013-4-20,41.2,36.6,33.6,32.2,22.4,16.5,84,57,40,30.12,30.06,0,0,0,0.00
2013-4-21,38.7,35.5,33.8,34.2,30.9,27.4,96,84,66,30.12,29.91,20,1,20,0.00
2013-4-22,40.8,37.4,34.5,38.2,33.3,27.8,98,85,71,30.21,30.09,10,0,10,0.00
2013-4-23,43.5,40.3,38.7,41.2,38.9,36.4,98,95,89,30.15,30.03,0,0,0,0.00
2013-4-24,58.6,44.4,33.1,42.2,34.7,26.4,92,71,41,30.15,29.65,0,0,0,0.00
2013-4-25,49.5,43.0,37.4,26.4,18.0,9.5,48,37,29,29.65,29.44,15,2,15,0.00
2013-4-26,55.4,43.0,35.2,25.3,13.7,7.2,39,30,26,29.50,29.32,17,2,17,0.00
2013-4-27,48.6,39.5,34.7,23.1,16.8,11.4,61,40,31,29.71,29.35,15,2,15,0.00
2013-4-28,50.5,41.4,33.4,20.1,15.2,12.3,45,34,28,29.97,29.71,13,1,13,0.00
2013-4-29,63.5,41.0,28.2,26.6,19.4,13.8,58,43,24,30.00,29.91,7,0,7,0.00
2013-4-30,58.1,45.5,35.6,29.7,24.0,18.3,54,43,29,29.91,29.47,8,0,8,0.00
2013-5-1,43.3,38.8,34.9,37.5,32.9,22.8,94,80,54,29.47,29.26,10,0,10,0.00
2013-5-2,52.2,43.9,38.1,38.3,35.0,32.1,86,72,50,29.59,29.41,13,0,13,0.00
2013-5-3,42.8,40.1,34.3,37.8,34.7,27.3,92,81,70,29.71,29.56,11,0,11,0.00
2013-5-4,50.2,38.4,32.9,31.1,25.4,16.4,91,62,35,29.83,29.53,10,0,10,0.00
2013-5-5,55.0,41.1,27.7,28.0,20.3,14.3,76,46,26,29.97,29.85,0,0,0,0.00
2013-5-6,57.9,41.4,28.9,29.2,23.4,17.8,76,50,34,30.03,29.97,0,0,0,0.00
2013-5-7,47.5,41.1,36.7,30.4,26.2,22.7,72,56,41,30.06,30.03,0,0,0,0.00
2013-5-8,51.6,41.1,35.8,33.9,29.9,22.5,76,65,44,30.06,30.00,0,0,0,0.00
2013-5-9,45.1,40.8,38.1,36.1,32.7,30.3,84,73,59,30.03,29.97,4,0,4,0.00
2013-5-10,57.0,44.6,36.3,36.9,30.2,23.4,82,59,31,29.97,29.71,10,0,10,0.00
2013-5-11,46.9,43.6,41.7,41.2,39.2,36.0,92,84,70,29.71,29.32,0,0,0,0.00
2013-5-12,54.7,47.1,42.8,41.4,36.6,29.6,91,69,48,29.32,29.26,0,0,0,0.00
2013-5-13,67.5,51.4,39.4,42.1,32.6,23.2,83,54,24,29.29,29.21,0,0,0,0.00
2013-5-14,50.9,38.8,36.5,24.9,19.0,18.0,47,45,33,29.47,29.41,0,0,0,0.00
2013-5-15,54.5,43.0,34.2,35.5,26.8,18.2,87,55,29,29.47,29.38,0,0,0,0.00
2013-5-16,39.7,39.0,38.7,38.2,36.4,35.1,94,90,87,29.38,29.26,0,0,0,0.00
2013-5-17,49.6,43.8,34.0,27.8,21.1,13.3,51,40,37,29.44,29.23,13,1,13,0.00
2013-5-18,51.1,39.1,30.9,19.5,11.3,3.0,43,32,19,30.00,29.44,21,1,21,0.00
2013-5-19,61.7,45.9,28.6,25.1,18.5,8.9,54,35,17,30.39,30.00,11,0,11,0.00
2013-5-20,52.2,43.2,32.4,28.2,24.2,18.5,64,48,36,30.45,30.33,0,0,0,0.00
2013-5-21,54.3,46.6,42.4,36.0,30.1,25.1,74,53,40,30.33,30.03,0,0,0,0.00
2013-5-22,53.4,46.5,42.8,41.2,38.0,35.8,81,72,54,30.03,29.88,0,0,0,0.00
2013-5-23,50.0,44.7,42.8,42.6,39.6,34.5,96,83,58,29.91,29.88,0,0,0,0.00
2013-5-24,73.9,55.8,43.0,46.2,37.8,30.9,86,56,28,29.91,29.80,0,0,0,0.00
2013-5-25,56.8,46.4,39.6,39.3,36.0,31.2,88,68,44,29.80,29.68,0,0,0,0.00
2013-5-26,45.0,42.8,41.0,43.4,39.9,35.9,97,89,77,29.68,29.59,9,0,9,0.00
2013-5-27,45.7,43.7,42.6,43.8,41.9,39.8,98,94,85,29.59,29.59,5,0,6,0.00
2013-5-28,69.8,53.3,42.3,45.9,39.0,32.7,95,63,34,29.59,29.44,0,0,0,0.00
2013-5-29,74.5,57.6,44.6,48.0,37.7,32.4,82,51,29,29.56,29.44,0,0,0,0.00
2013-5-30,73.8,54.2,41.9,45.8,36.5,30.9,79,54,30,29.80,29.56,0,0,0,0.00
2013-5-31,51.3,47.4,43.7,44.4,40.9,37.8,92,78,64,29.97,29.80,0,0,0,0.00
2013-6-1,62.8,51.6,45.1,45.3,38.0,30.0,87,62,41,30.00,29.97,0,0,0,0.00
2013-6-2,48.4,45.7,44.1,45.5,40.8,29.6,98,84,55,30.00,29.74,8,0,8,0.00
2013-6-3,45.9,44.3,43.3,45.1,43.5,42.3,98,97,96,29.74,29.44,13,0,13,0.00
2013-6-4,48.9,46.0,43.5,44.5,42.2,39.4,97,87,73,29.59,29.41,0,0,0,0.00
2013-6-5,47.8,45.8,44.2,43.7,41.9,39.1,91,86,79,29.71,29.59,8,0,8,0.00
2013-6-6,46.8,45.4,43.9,41.7,39.3,34.8,90,79,65,29.68,29.53,15,1,15,0.00
2013-6-7,65.8,52.5,43.0,45.2,34.1,28.0,79,52,30,29.77,29.53,6,0,6,0.00
2013-6-8,75.7,58.0,42.4,46.3,36.1,27.6,84,49,23,29.97,29.77,6,0,6,0.00
2013-6-9,82.4,62.8,46.6,44.3,32.8,26.2,68,35,20,30.06,29.97,10,0,10,0.00
2013-6-10,88.2,64.3,44.8,45.4,34.8,28.2,68,37,19,30.06,29.97,5,0,5,0.00
2013-6-11,87.8,65.8,48.6,41.8,35.9,27.5,68,37,18,29.97,29.83,4,0,4,0.00
2013-6-12,73.8,56.8,46.2,43.8,37.0,33.1,71,49,31,29.83,29.74,7,0,7,0.00
2013-6-13,57.6,49.5,46.0,45.6,41.7,37.8,91,75,50,30.00,29.80,6,0,6,0.00
2013-6-14,77.5,59.7,46.4,46.1,40.9,34.6,85,55,25,30.06,30.00,5,0,5,0.00
2013-6-15,79.9,62.2,46.4,49.0,39.9,35.5,92,47,25,30.09,30.03,5,0,5,0.00
2013-6-16,90.7,74.2,48.4,51.9,41.5,33.4,80,34,20,30.03,29.94,0,0,0,0.00
2013-6-17,92.8,70.9,50.2,48.4,36.3,21.9,74,35,9,29.94,29.68,5,0,5,0.00
2013-6-18,77.5,60.3,51.3,46.7,42.4,33.9,83,55,24,29.71,29.56,17,0,17,0.00
2013-6-19,56.8,51.8,48.2,49.4,44.9,40.1,88,78,56,29.74,29.56,0,0,0,0.00
2013-6-20,57.9,51.4,47.5,44.7,38.7,33.2,87,64,41,29.83,29.74,12,0,12,0.00
2013-6-21,64.9,53.1,47.5,46.0,41.2,35.4,88,67,37,29.85,29.83,17,1,17,0.00
2013-6-22,49.8,47.5,46.0,45.3,42.6,37.1,94,84,64,29.83,29.47,12,0,12,0.24
2013-6-23,49.3,47.6,46.2,48.2,46.6,44.8,98,96,94,29.47,29.38,4,0,4,0.83
2013-6-24,60.4,51.3,48.2,50.4,47.6,44.0,98,88,61,29.47,29.38,0,0,0,0.28
2013-6-25,87.1,65.9,49.3,55.9,45.8,39.1,89,54,24,29.44,29.38,0,0,0,0.00
2013-6-26,89.1,64.1,53.1,61.8,46.6,37.0,85,59,22,29.68,29.38,11,0,11,0.00
2013-6-27,69.8,57.7,50.4,50.3,45.9,41.5,87,67,38,29.88,29.68,6,0,6,0.00
2013-6-28,76.3,60.4,52.2,52.6,44.7,38.6,85,59,33,29.97,29.88,0,0,0,0.04
2013-6-29,70.3,58.4,49.3,50.8,43.9,38.4,82,61,36,29.94,29.80,5,0,5,0.00
2013-6-30,58.1,52.5,48.9,46.9,42.7,37.4,89,70,53,29.85,29.59,22,2,22,0.12
2013-7-1,58.5,51.9,48.7,53.0,46.7,40.5,93,83,61,29.59,29.29,23,2,23,0.16
2013-7-2,59.2,52.8,45.5,47.5,40.6,37.2,85,65,46,29.68,29.38,232,0,232,0.00
2013-7-3,59.4,51.5,44.2,47.2,41.9,37.5,83,70,51,29.80,29.68,12,0,12,0.00
2013-7-4,58.8,52.9,47.7,46.5,43.3,39.1,84,71,50,29.83,29.77,10,0,11,0.08
2013-7-5,59.2,52.8,50.2,52.2,46.5,43.4,87,80,66,29.85,29.77,0,0,0,0.28
2013-7-6,57.7,51.6,48.4,49.5,44.8,41.0,85,78,58,29.77,29.47,15,0,15,0.51
2013-7-7,54.1,50.3,47.3,48.6,45.6,43.5,89,84,76,29.50,29.38,0,0,0,0.28
2013-7-8,61.9,54.3,47.8,50.5,43.0,36.3,88,68,45,29.68,29.50,6,0,6,0.28
2013-7-9,72.7,56.5,45.7,41.8,39.0,36.4,79,54,31,29.91,29.68,10,0,10,0.28
2013-7-10,78.8,60.5,46.6,48.5,40.8,35.5,80,52,27,29.91,29.77,15,0,15,0.00
2013-7-11,80.6,67.0,51.1,51.7,44.6,40.0,78,47,26,29.77,29.71,4,0,4,0.00
2013-7-12,70.2,56.9,49.3,49.5,43.7,39.6,79,63,37,29.77,29.74,4,0,4,0.00
2013-7-13,60.4,56.8,48.7,52.5,48.6,43.8,86,74,66,30.00,29.80,6,0,6,0.00
2013-7-14,63.9,57.0,53.1,54.4,49.7,46.2,87,77,58,30.12,30.00,5,0,5,0.00
2013-7-15,68.5,59.5,52.2,53.0,47.6,44.3,83,66,45,30.15,30.03,4,0,4,0.00
2013-7-16,79.0,63.3,54.5,53.7,48.6,44.1,81,61,32,30.06,30.00,0,0,0,0.00
2013-7-17,82.9,67.8,56.7,59.3,50.2,45.1,83,56,31,30.00,29.94,6,0,6,0.00
2013-7-18,81.0,68.6,58.6,55.1,50.5,46.3,79,54,33,30.03,29.94,4,0,4,0.00
2013-7-19,70.0,64.1,57.9,51.1,45.6,39.2,72,52,34,30.09,30.03,8,0,8,0.00
2013-7-20,68.4,64.5,58.3,47.0,42.1,38.7,58,44,35,30.06,29.94,17,1,17,0.00
2013-7-21,77.5,64.2,52.7,46.7,40.4,35.6,74,44,28,29.94,29.80,12,0,12,0.00
2013-7-22,79.5,68.1,58.6,40.7,37.6,35.4,47,33,23,29.91,29.80,17,1,17,0.00
2013-7-23,80.1,64.9,52.7,52.2,43.2,38.1,73,47,30,29.94,29.85,6,0,6,0.00
2013-7-24,86.5,67.4,54.0,53.3,45.2,41.7,75,48,21,29.88,29.77,3,0,3,0.00
2013-7-25,77.9,65.1,55.9,54.8,46.9,42.7,74,53,32,29.88,29.80,8,0,8,0.00
2013-7-26,67.6,59.7,55.0,52.0,48.8,44.3,80,68,50,30.12,29.88,0,0,0,0.00
2013-7-27,63.1,58.3,54.9,54.6,50.8,47.4,84,76,63,30.15,30.09,3,0,3,0.00
2013-7-28,77.5,61.7,52.2,55.5,49.3,43.3,85,67,34,30.12,30.00,4,0,4,0.00
2013-7-29,79.3,63.6,52.3,55.5,47.9,43.2,83,59,32,30.00,29.97,5,0,5,0.00
2013-7-30,79.0,60.4,51.3,54.2,47.3,41.7,83,64,30,30.03,30.00,5,0,5,0.00
2013-7-31,65.3,58.1,52.5,52.8,49.1,41.3,84,72,57,30.03,29.91,10,1,10,0.00
2013-8-1,55.9,55.0,54.3,53.5,52.1,50.0,93,90,81,29.91,29.71,9,0,9,1.10
2013-8-2,55.6,54.7,54.0,53.9,52.9,52.3,95,94,93,29.74,29.32,232,1,232,0.91
2013-8-3,60.8,55.2,52.9,53.5,51.3,47.9,96,87,67,29.68,29.32,22,4,22,0.08
2013-8-4,65.5,57.8,53.6,56.6,49.9,46.0,89,76,51,29.74,29.68,0,0,0,0.04
2013-8-5,55.6,54.5,52.9,52.0,50.5,48.2,92,86,76,29.74,29.62,0,0,0,0.00
2013-8-6,55.6,53.7,52.3,54.5,52.1,49.4,97,94,88,29.62,29.41,22,5,22,1.93
2013-8-7,56.1,52.9,48.4,52.3,49.0,43.6,90,86,83,29.50,29.44,20,3,20,0.00
2013-8-8,52.7,49.7,43.5,51.1,46.6,39.5,95,89,84,29.53,29.38,22,1,22,0.04
2013-8-9,62.6,55.6,50.7,56.6,50.8,45.5,96,85,61,29.53,29.35,10,0,10,0.20
2013-8-10,64.4,56.3,51.3,50.3,46.0,42.4,86,69,48,29.77,29.53,9,1,9,0.00
2013-8-11,56.7,54.2,52.2,49.8,47.0,44.4,86,77,65,29.77,29.74,11,1,11,0.04
2013-8-12,59.7,56.0,54.0,52.7,49.0,46.8,83,77,70,29.80,29.71,13,1,13,0.00
2013-8-13,66.4,56.7,52.2,52.3,47.8,42.7,87,73,47,29.80,29.77,11,2,11,0.00
2013-8-14,68.9,56.4,46.4,51.0,44.7,40.9,85,66,45,29.83,29.71,10,2,10,0.00
2013-8-15,63.7,56.8,50.5,52.2,45.8,40.4,85,68,45,29.71,29.56,6,0,6,0.00
2013-8-16,54.7,53.0,50.5,52.5,49.0,43.2,94,87,72,29.56,29.29,7,0,7,0.47
2013-8-17,57.6,54.4,52.3,55.7,51.4,49.2,95,90,81,29.29,29.21,11,0,11,0.39
2013-8-18,63.9,58.4,54.5,56.9,51.4,46.9,94,79,55,29.47,29.26,13,1,13,0.00
2013-8-19,58.3,54.8,50.7,53.3,49.0,45.9,89,81,68,29.56,29.47,7,0,7,0.00
2013-8-20,62.2,56.4,51.8,53.3,47.6,41.9,88,73,49,29.71,29.56,8,0,8,0.00
2013-8-21,61.2,57.0,53.4,53.9,49.3,47.4,86,76,62,29.71,29.56,0,0,0,0.00
2013-8-22,60.1,57.1,54.7,56.7,52.9,50.0,90,86,81,29.56,29.53,4,0,4,0.00
2013-8-23,66.9,58.3,52.7,56.2,46.9,38.1,90,69,35,29.56,29.41,11,0,11,0.00
2013-8-24,72.1,60.7,53.4,40.2,36.8,34.5,52,41,29,29.53,29.38,16,2,16,1.10
2013-8-25,66.6,58.2,50.2,40.4,36.1,32.0,57,44,33,29.53,29.50,10,0,10,0.00
2013-8-26,63.0,56.4,52.2,48.3,44.0,40.4,75,64,48,29.53,29.50,5,0,5,0.00
2013-8-27,66.6,58.8,54.0,45.7,41.5,38.5,72,54,39,29.62,29.53,8,1,8,0.00
2013-8-28,57.0,53.2,50.5,46.9,44.1,39.2,86,72,53,29.62,29.18,6,0,6,0.20
2013-8-29,53.8,52.3,50.5,53.0,50.9,47.0,97,95,87,29.56,29.06,13,3,13,2.09
2013-8-30,67.5,57.6,53.6,56.2,50.4,43.6,97,79,47,29.80,29.56,6,0,8,0.00
2013-8-31,62.4,56.1,51.4,55.0,47.2,43.4,88,73,53,29.80,29.65,8,0,8,0.35
2013-9-1,64.8,56.3,50.2,51.6,47.8,44.6,85,74,55,29.68,29.50,11,1,11,0.00
2013-9-2,56.8,54.7,53.6,52.6,49.5,45.2,92,83,71,29.50,29.21,18,4,18,0.00
2013-9-3,61.3,54.3,48.9,52.0,47.2,40.9,94,78,49,29.21,29.12,15,3,15,0.00
2013-9-4,62.1,53.3,47.1,45.8,40.3,33.7,82,63,40,29.62,29.21,8,1,8,0.00
2013-9-5,57.4,52.8,47.8,46.0,41.4,37.4,75,66,52,29.77,29.62,9,1,9,0.00
2013-9-6,55.2,52.4,50.9,54.1,50.1,43.8,97,92,75,29.65,28.91,24,4,24,0.00
2013-9-7,55.6,52.1,48.9,49.5,45.3,41.7,88,78,68,29.44,29.23,8,0,11,0.00
2013-9-8,56.7,49.8,42.4,48.9,44.0,38.3,91,81,65,29.53,29.38,21,4,21,0.00
2013-9-9,56.3,53.2,51.1,55.2,51.3,48.7,96,93,89,29.41,29.23,19,6,19,0.00
2013-9-10,57.9,53.6,50.2,54.6,50.1,46.5,94,88,76,29.47,29.38,8,1,8,0.00
2013-9-11,57.2,52.8,46.4,49.6,44.3,38.6,86,73,58,29.68,29.47,8,0,8,0.00
2013-9-12,55.0,50.9,46.2,50.3,45.2,38.8,94,81,69,29.68,29.41,18,6,18,0.00
2013-9-13,56.7,51.4,46.2,55.2,49.4,44.8,95,93,89,29.65,29.41,9,1,10,0.00
2013-9-14,54.0,51.7,50.2,49.0,47.0,43.1,91,84,68,29.65,29.62,13,1,13,0.00
2013-9-15,62.2,55.1,47.1,43.3,35.4,28.2,81,50,34,29.65,29.53,15,3,15,0.00
2013-9-16,60.8,54.5,47.1,32.7,29.0,25.9,52,38,32,29.53,29.35,17,3,17,0.00
2013-9-17,59.4,47.5,38.8,41.0,32.2,26.9,78,56,37,29.38,29.26,9,0,9,0.00
2013-9-18,53.6,45.3,37.8,39.6,31.7,26.7,77,60,43,29.47,29.35,7,0,7,0.00
2013-9-19,56.5,45.0,36.1,36.2,26.0,15.2,79,51,28,29.44,29.26,14,2,14,0.00
2013-9-20,54.3,48.3,42.4,39.8,26.5,15.1,77,44,29,29.26,28.64,14,2,14,0.00
2013-9-21,46.6,44.5,41.9,44.4,36.5,21.8,94,75,40,28.73,28.50,17,5,17,0.00
2013-9-22,47.3,43.0,38.3,21.8,17.7,15.2,40,36,31,29.12,28.73,232,9,232,0.00
2013-9-23,51.3,45.1,39.6,20.1,18.4,16.4,40,34,28,29.56,29.09,22,5,24,0.00
2013-9-24,49.1,41.8,32.9,45.3,28.9,16.3,89,61,38,29.71,29.44,14,3,14,0.00
2013-9-25,52.3,49.1,45.5,47.8,44.4,39.4,92,84,71,29.44,29.21,14,4,14,0.00
2013-9-26,55.8,49.0,45.0,44.2,39.7,32.1,87,71,50,29.44,28.82,15,2,15,0.00
2013-9-27,49.1,47.4,45.5,45.0,42.8,36.1,89,84,61,28.91,28.41,22,2,22,0.00
2013-9-28,49.6,47.0,42.6,36.5,29.8,22.2,62,51,44,29.00,28.91,26,4,26,0.00
2013-9-29,43.7,41.3,39.7,22.4,19.2,17.4,44,41,38,29.21,29.00,37,9,37,0.00
2013-9-30,44.1,41.1,38.8,20.7,18.7,17.1,42,40,38,29.44,29.21,28,7,28,0.00
2013-10-1,50.4,42.4,34.5,26.4,20.9,17.6,57,42,38,29.59,29.47,14,2,17,0.00
2013-10-2,47.7,40.8,32.0,40.7,30.7,20.7,83,68,48,29.59,29.35,10,1,10,0.00
2013-10-3,46.9,45.9,44.6,45.6,43.2,40.7,97,90,81,29.35,28.82,21,4,21,0.00
2013-10-4,53.6,47.7,39.9,46.9,40.3,32.1,97,78,47,29.59,29.15,6,0,6,0.00
2013-10-5,48.6,42.4,36.7,43.3,35.6,30.7,88,77,54,29.62,29.47,11,0,11,0.00
2013-10-6,50.4,44.4,40.5,43.8,36.7,28.6,87,75,43,29.59,29.47,5,0,5,0.00
2013-10-7,51.3,44.4,37.6,46.2,38.3,30.7,89,79,63,29.65,29.38,14,2,14,0.00
2013-10-8,52.0,48.6,45.9,49.4,37.3,23.2,92,69,37,29.38,28.97,29,4,29,0.00
2013-10-9,51.1,47.4,45.3,28.6,24.2,20.4,51,40,36,29.59,29.09,30,5,30,0.00
2013-10-10,50.2,46.9,40.6,41.8,37.6,25.8,81,70,51,29.59,29.41,13,4,13,0.00
2013-10-11,50.4,44.3,36.9,43.6,38.2,31.9,88,79,57,29.62,29.44,21,3,21,0.00
2013-10-12,47.5,47.1,45.7,46.2,45.5,43.6,96,94,88,29.47,29.21,20,6,24,0.00
2013-10-13,49.5,44.4,37.6,46.3,39.8,34.5,96,85,61,29.44,29.21,18,2,18,0.00
2013-10-14,50.0,42.3,35.1,45.3,35.2,30.5,88,77,54,29.83,29.44,17,2,17,0.00
2013-10-15,52.0,49.2,46.6,44.8,43.5,40.9,88,81,73,29.94,29.74,20,7,20,0.00
2013-10-16,48.6,47.5,45.1,47.2,44.4,39.3,95,89,79,30.00,29.80,17,4,17,0.00
2013-10-17,48.7,48.1,47.3,47.8,47.2,46.4,97,97,95,29.80,29.41,18,1,18,0.00
2013-10-18,48.6,46.3,42.1,47.8,41.3,34.2,97,83,71,29.56,29.23,17,6,22,0.00
2013-10-19,48.7,45.4,42.3,44.9,37.6,31.3,90,75,60,29.53,29.21,15,3,15,0.00
2013-10-20,48.0,42.3,36.3,40.2,32.7,29.4,83,69,53,29.77,29.53,12,2,12,0.00
2013-10-21,45.3,37.6,33.1,41.4,32.3,27.6,87,81,72,29.91,29.74,3,0,3,0.00
2013-10-22,42.6,35.7,29.8,39.5,32.2,26.5,90,87,84,29.97,29.80,232,0,232,0.00
2013-10-23,44.4,40.9,37.9,37.8,32.8,26.5,88,74,50,31.01,29.62,11,0,11,0.00
2013-10-24,48.7,45.4,41.7,46.7,40.3,34.2,95,83,67,31.01,17.72,24,5,24,0.00
2013-10-25,48.2,40.3,34.5,41.3,33.1,28.6,89,76,55,17.72,17.72,9,0,9,0.00
2013-10-26,45.1,38.7,31.5,41.9,34.3,27.2,89,84,77,17.72,17.72,13,1,13,0.00
2013-10-27,51.3,48.0,44.4,49.9,46.0,40.8,95,93,87,17.72,17.72,20,2,20,0.00
2013-10-28,50.2,45.9,36.1,48.8,40.0,28.4,96,81,51,17.72,17.72,22,2,23,0.00
2013-10-29,46.6,40.1,34.0,45.5,36.7,29.1,97,87,78,17.72,17.72,14,1,14,0.00
2013-10-30,46.4,43.6,41.5,45.4,39.8,34.9,97,87,71,17.72,17.72,21,3,21,0.00
2013-10-31,45.9,40.5,34.9,40.6,33.1,27.8,88,76,49,17.72,17.72,5,0,5,0.00
2013-11-1,40.8,34.6,31.1,35.8,28.6,25.0,88,79,68,17.72,17.72,0,0,0,0.00
2013-11-2,46.8,40.2,29.5,44.6,36.9,24.0,93,88,77,17.72,17.72,13,2,13,0.00
2013-11-3,45.3,43.3,39.0,43.1,41.3,37.1,94,93,91,17.72,17.72,10,1,10,0.00
2013-11-4,43.2,40.6,39.0,41.0,37.1,33.5,93,87,70,17.72,17.72,8,0,8,0.00
2013-11-5,45.5,41.2,34.3,33.5,20.3,12.2,70,43,33,17.72,17.72,17,4,28,0.00
2013-11-6,38.5,34.1,28.2,28.0,20.2,13.6,72,57,42,17.72,17.72,8,0,8,0.00
2013-11-7,43.7,40.6,36.1,40.4,34.9,28.0,88,80,65,17.72,17.72,13,1,13,0.00
2013-11-8,44.1,39.7,35.8,33.8,24.1,17.6,85,55,39,17.72,17.72,17,1,17,0.00
2013-11-9,46.6,40.6,37.0,42.1,35.0,27.1,86,80,67,17.72,17.72,0,0,0,0.00
2013-11-10,47.7,42.5,38.8,41.7,34.7,18.3,85,75,43,17.72,17.72,14,1,14,0.00
2013-11-11,38.8,36.0,33.4,20.3,15.3,12.6,51,42,39,17.72,17.72,13,1,13,0.00
2013-11-12,37.8,34.3,32.0,18.7,14.3,10.4,53,43,38,17.72,17.72,18,1,18,0.00
2013-11-13,46.6,39.7,34.0,42.3,31.5,18.7,86,73,53,17.72,17.72,4,0,4,0.00
2013-11-14,54.7,48.3,43.5,48.1,34.1,22.7,90,59,43,17.72,17.72,16,2,16,0.00
2013-11-15,47.7,44.4,41.4,32.0,26.0,20.1,57,48,38,17.72,17.72,22,1,22,0.00
2013-11-16,44.6,34.9,29.3,29.4,11.0,3.9,58,37,31,17.72,17.72,17,2,17,0.00
2013-11-17,29.8,27.6,26.2,7.1,4.7,3.2,43,37,34,17.72,17.72,8,0,11,0.00
2013-11-18,27.9,24.7,18.5,6.8,4.3,1.6,48,41,35,17.72,17.72,0,0,0,0.00
2013-11-19,26.2,22.4,17.6,11.9,7.8,1.8,55,53,48,17.72,17.72,0,0,0,0.00
2013-11-20,33.3,28.9,22.5,30.4,20.7,8.8,89,72,55,17.72,17.72,0,0,0,0.00
2013-11-21,44.6,38.4,32.2,43.8,36.3,26.6,97,92,78,17.72,17.72,23,4,23,0.00
2013-11-22,41.0,30.9,23.4,40.3,19.3,4.6,98,65,34,17.72,17.72,8,0,8,0.00
2013-11-23,37.4,29.1,22.5,31.5,17.2,8.3,79,61,54,17.72,17.72,232,0,232,0.00
2013-11-24,41.2,39.4,36.9,34.1,32.3,29.5,82,75,67,17.72,17.72,232,6,232,0.00
2013-11-25,41.0,38.0,31.3,34.4,30.3,26.1,82,74,65,17.72,17.72,12,0,12,0.00
2013-11-26,38.3,33.5,30.6,35.1,29.5,25.7,89,85,78,17.72,17.72,0,0,0,0.00
2013-11-27,38.5,33.7,28.2,30.3,21.4,13.4,84,62,41,17.72,17.72,21,1,21,0.00
2013-11-28,33.8,26.4,20.8,13.5,2.8,-0.7,43,36,32,17.72,17.72,13,0,13,0.00
2013-11-29,27.0,24.3,22.5,8.4,1.8,-1.5,53,38,32,17.72,17.72,0,0,0,0.00
2013-11-30,27.1,24.1,21.9,9.3,6.9,5.4,53,47,41,17.72,17.72,0,0,0,0.00
2013-12-1,33.8,30.0,24.4,12.1,9.1,4.6,52,41,33,17.72,17.72,11,1,11,0.00
2013-12-2,30.7,24.8,20.5,22.6,14.7,7.9,74,65,52,17.72,17.72,4,0,4,0.00
2013-12-3,38.7,35.5,25.7,31.7,27.2,18.6,79,72,63,17.72,17.72,10,1,10,0.00
2013-12-4,42.1,40.4,38.3,39.3,36.6,31.7,91,86,77,17.72,17.72,11,0,11,0.00
2013-12-5,41.2,40.4,39.6,39.0,38.4,37.2,93,92,91,17.72,17.72,0,0,0,0.00
2013-12-6,43.3,41.4,39.6,41.7,39.9,28.7,95,94,93,17.72,17.72,9,0,9,0.00
2013-12-7,40.6,39.0,36.1,38.8,35.8,28.3,95,89,72,17.72,17.72,10,1,10,0.00
2013-12-8,39.9,37.0,30.7,35.0,30.4,23.0,83,77,68,17.72,17.72,11,1,11,0.00
2013-12-9,40.3,37.5,33.3,36.3,34.2,29.8,91,88,83,17.72,17.72,6,0,6,0.00
2013-12-10,41.2,39.9,38.1,40.4,38.4,35.7,97,94,88,17.72,17.72,13,3,15,0.00
2013-12-11,40.3,34.6,31.1,37.6,23.7,15.4,93,66,46,17.72,17.72,23,4,23,0.00
2013-12-12,30.9,23.2,19.4,16.8,7.6,0.7,58,51,43,17.72,17.72,6,0,6,0.00
2013-12-13,28.8,24.7,19.2,16.7,12.7,3.6,74,60,50,17.72,17.72,0,0,0,0.00
2013-12-14,25.7,20.4,12.4,12.0,4.0,-4.9,56,48,43,17.72,17.72,0,0,0,0.00
2013-12-15,21.0,17.3,13.3,7.1,1.2,-4.1,58,49,43,17.72,17.72,0,0,0,0.00
2013-12-16,22.3,17.6,10.8,7.5,2.1,-5.5,54,50,46,17.72,17.72,0,0,0,0.00
2013-12-17,27.0,21.9,15.8,10.4,6.6,3.9,61,51,46,17.72,17.72,0,0,0,0.00
2013-12-18,37.2,28.1,15.4,35.9,22.8,4.4,95,80,61,17.72,17.72,17,2,17,0.00
2013-12-19,37.4,36.0,35.1,35.3,33.8,32.9,94,92,90,17.72,17.72,14,1,15,0.00
2013-12-20,40.8,36.3,33.4,39.5,34.7,31.9,95,94,93,17.72,17.72,11,2,14,0.00
2013-12-21,38.3,36.6,34.2,37.3,35.2,0.0,96,95,92,17.72,17.72,10,1,10,0.00
2013-12-22,37.8,32.9,28.0,35.4,18.9,1.1,91,59,30,17.72,17.72,26,4,26,0.00
2013-12-23,30.6,26.8,23.9,9.7,6.1,1.3,52,41,31,17.72,17.72,0,0,0,0.00
2013-12-24,35.4,32.2,24.8,32.2,24.2,9.6,95,74,47,17.72,17.72,29,6,29,0.00
2013-12-25,30.7,29.6,28.4,25.9,18.2,15.4,83,62,55,17.72,17.72,232,5,232,0.00
2013-12-26,31.3,28.7,25.9,24.9,20.8,14.6,80,72,58,17.72,17.72,0,0,0,0.00
2013-12-27,39.7,34.2,26.1,38.7,31.2,20.8,96,89,80,17.72,17.72,8,1,8,0.00
2013-12-28,36.1,33.7,31.1,35.1,32.3,28.8,97,94,91,17.72,17.72,14,1,14,0.00
2013-12-29,39.2,37.3,32.5,38.4,36.1,30.7,97,95,92,17.72,17.72,12,0,12,0.00
2013-12-30,39.2,36.6,32.0,38.5,36.0,31.2,98,98,97,17.72,17.72,2,0,4,0.00
2013-12-31,41.5,37.6,32.5,40.5,36.0,31.8,98,94,84,17.72,17.72,27,6,27,0.00
2014-1-1,40.5,37.0,33.3,35.8,29.0,21.2,87,73,54,17.72,17.72,20,3,20,0.00
2014-1-2,35.1,31.7,28.4,27.7,23.4,19.9,81,71,56,17.72,17.72,8,0,10,0.00